Location: downtown San Diego
(32.7310°N, 117.1990°W)
Time: 21:54:22
(UTC-07:00)

Cosmos 1818 - Pass Details

Date: 12 July 2018
Orbit: 771 x 802 km, 65.0° (Epoch: 24 September)

Event Time Altitude Azimuth Distance (km) Brightness Sun altitude
Rises 20:47:42 0° 338° (NNW) 3,314 7.8 -9.7°
Reaches altitude 10° 20:50:14 10° 345° (NNW) 2,381 6.8 -10.2°
Maximum altitude 20:55:30 46° 58° (ENE) 1,067 4.1 -11.1°
Enters shadow 20:59:38 16° 127° (SE) 1,983 5.0 -11.8°
